Wind_Speed
2 2 2 4 4 5 7 9 12 15 11 18 18 14 11 18 12 11 10 10 12 11 18 14 13 13 12 12 12 14 13 14 14 15 16 16 16 16 17 16 16 15 15 15
3 4 4 4 6 8 8 11 10 9 16 20 19 17 3 3 5 10 12 9 9 13 15 13 13 13 13 15 15 14 15 17 17 18 18 17 19 19 19 18 18 17 16 16
4 6 7 6 7 7 9 11 12 14 18 17 18 8 3 8 5 8 7 7 7 8 10 11 12 13 14 13 15 17 18 19 18 20 19 19 20 21 21 20 19 19 18 17
5 4 3 4 7 8 11 10 13 16 15 7 15 7 9 5 3 6 8 6 6 6 7 8 9 10 12 14 16 16 18 19 20 21 20 21 22 22 23 21 21 21 20 19
6 6 7 8 9 8 10 13 15 16 14 10 6 4 3 5 3 3 7 7 7 7 7 8 8 8 9 11 12 14 16 18 19 21 21 22 22 23 24 22 22 23 21 20
10 9 9 7 8 8 10 12 17 9 5 3 3 6 3 1 1 2 3 6 8 8 7 7 7 6 7 10 12 14 15 16 19 21 22 23 23 25 25 23 23 24 23 22
5 8 8 7 7 6 7 10 4 2 2 3 5 10 4 8 10 5 7 10 10 8 6 5 4 7 11 15 16 17 18 18 20 22 23 23 24 26 26 26 25 25 23 23
3 2 4 3 3 4 8 5 4 4 4 9 19 6 2 6 8 10 10 9 11 10 8 7 9 14 18 21 23 23 23 23 24 24 23 25 26 27 27 26 27 26 25 24
2 3 4 5 5 4 3 3 5 4 6 5 4 7 13 5 3 7 5 6 9 11 12 14 19 23 26 29 29 29 29 27 27 26 26 26 27 28 28 29 29 27 26 26
4 3 5 6 6 6 7 5 4 3 4 5 3 10 8 10 10 11 8 8 13 14 15 24 31 32 33 32 30 28 28 27 27 27 26 28 28 28 29 31 30 28 28 28
7 6 3 3 3 5 5 5 3 3 3 3 5 7 12 11 11 12 13 12 17 22 22 37 41 36 32 28 26 25 23 22 24 26 27 29 31 30 31 32 30 30 30 29
9 6 5 8 11 10 9 9 7 4 3 6 6 15 2 6 11 13 18 19 26 30 36 45 42 32 27 23 21 20 21 23 25 28 31 31 32 33 32 31 30 31 30 31
7 6 2 2 4 3 6 4 7 10 14 12 7 11 8 23 27 28 28 32 36 38 45 43 35 27 22 20 19 20 22 24 25 26 27 29 30 30 30 30 30 31 32 33
12 14 14 10 7 15 18 18 19 17 13 17 31 40 31 32 32 30 30 27 30 34 36 32 28 24 21 21 21 21 22 23 24 23 22 20 19 23 25 29 30 30 32 33
15 20 20 21 21 21 25 27 28 32 31 24 34 32 26 26 24 24 25 24 26 28 29 26 24 22 22 23 22 22 23 22 21 20 18 17 18 19 22 24 25 28 30 31
20 21 21 25 22 22 29 30 30 35 34 35 28 32 24 25 22 25 28 29 31 30 28 26 23 22 20 19 21 21 21 20 19 18 17 16 17 19 19 21 22 25 28 29
18 18 13 10 16 13 22 17 11 12 20 22 28 31 20 14 17 19 19 18 19 21 21 22 19 19 20 21 19 18 19 20 20 20 19 18 17 18 19 20 21 23 24 27
22 20 15 11 11 6 12 8 12 17 16 25 30 15 17 19 23 20 18 18 23 24 21 18 18 19 19 18 18 19 20 20 21 20 20 20 20 20 21 21 21 21 23 24
27 26 15 8 13 18 22 21 24 19 27 23 12 17 21 26 27 22 23 25 25 22 18 16 16 18 17 18 20 21 22 24 24 25 26 25 24 24 24 24 25 25 26 25
33 32 26 16 9 8 11 10 11 22 28 9 13 28 22 22 26 21 25 27 24 21 18 16 16 17 19 21 23 25 26 29 29 28 29 30 30 30 28 29 27 28 28 28
21 28 35 32 17 19 22 24 23 13 15 15 30 33 32 28 28 29 24 28 26 23 20 18 19 20 22 24 27 29 31 30 32 32 31 31 32 32 33 33 33 33 33 31
26 21 26 26 19 21 22 19 24 18 23 32 36 36 35 35 34 30 27 27 28 25 24 23 23 25 27 29 31 33 33 34 34 35 36 34 35 38 41 43 42 41 40 38
35 40 31 34 32 28 29 28 27 28 35 38 39 39 40 38 38 35 34 30 29 30 30 30 29 28 31 33 34 35 34 37 36 37 37 41 44 44 41 41 41 41 41 42
41 39 43 40 52 49 47 45 44 44 44 44 44 42 41 40 40 40 37 37 35 34 35 35 35 35 34 36 37 37 38 38 38 37 40 42 42 42 41 38 39 38 37 39
40 39 41 52 52 53 52 45 45 42 45 47 48 42 37 37 38 30 27 28 32 34 35 37 38 39 37 40 41 40 41 41 40 41 41 42 44 41 39 39 38 37 36 38
59 60 56 68 50 46 44 41 47 54 55 51 43 42 47 42 42 36 40 41 43 41 37 39 41 42 39 41 42 42 43 44 42 41 39 38 40 43 41 40 36 36 36 37
Wind_Direction
284 351 277 311 328 333 335 340 334 331 328 329 323 320 299 270 278 252 249 248 239 236 242 250 251 256 260 261 258 258 264 267 271 276 281 284 286 287 289 292 293 295 298 302
304 292 304 314 320 329 331 335 324 326 330 326 325 324 280 328 254 224 232 245 244 238 252 256 258 263 264 262 264 268 266 269 270 274 277 282 284 283 284 286 288 289 291 296
256 275 292 307 317 318 318 321 320 320 325 324 333 332 250 313 270 230 229 229 246 258 259 261 262 266 267 275 273 269 268 272 273 274 279 281 282 283 285 283 283 285 287 291
272 267 287 310 314 316 314 316 315 315 323 311 325 300 309 309 272 226 224 228 235 245 260 268 269 270 271 269 278 281 279 277 276 277 278 278 280 283 282 285 283 282 283 287
264 274 288 298 302 312 306 317 313 310 307 314 319 300 281 319 287 249 233 239 252 260 267 271 280 282 288 289 290 290 288 286 282 281 278 277 277 276 279 283 282 281 282 284
260 269 282 288 297 306 313 323 316 321 326 248 287 9 277 232 76 347 263 257 261 262 262 267 273 287 294 301 302 297 295 292 287 284 281 279 277 276 276 276 276 280 282 282
256 264 270 276 294 316 336 347 318 259 270 350 282 317 234 284 290 298 271 260 256 256 248 244 273 301 305 302 298 296 295 295 289 287 284 281 275 274 276 276 275 276 277 279
243 272 238 250 260 310 330 9 358 314 322 310 296 242 267 297 294 291 270 259 249 244 240 252 289 303 306 306 302 296 292 290 289 287 288 280 275 275 274 275 275 274 276 276
226 257 236 242 275 304 323 346 317 286 289 283 276 296 310 306 289 298 277 270 257 252 254 279 284 292 297 300 299 296 291 288 289 287 279 278 276 275 274 270 269 273 274 274
239 266 261 259 277 278 269 297 346 336 321 304 297 288 279 292 290 291 279 290 264 252 267 298 301 295 293 294 293 294 291 284 282 285 284 278 275 273 272 270 272 272 271 274
230 233 262 265 261 272 277 280 287 289 251 296 310 287 294 286 287 283 282 293 284 264 277 302 304 305 300 294 291 293 295 289 286 287 284 279 276 272 270 271 271 272 271 272
217 234 234 258 269 268 267 263 263 233 236 242 271 278 328 349 326 311 299 298 299 287 283 297 303 304 300 300 297 292 292 292 289 287 287 281 274 274 274 275 273 271 269 268
212 228 209 263 271 266 247 271 272 260 263 253 253 265 261 300 301 296 291 288 290 286 287 292 300 296 295 298 297 294 293 294 295 293 290 284 278 278 278 277 272 270 269 270
252 250 245 259 274 287 280 280 280 264 249 266 257 294 313 316 314 313 308 299 288 282 286 294 293 289 288 288 291 293 296 298 299 298 297 289 279 277 276 276 274 272 274 276
250 262 269 272 274 278 283 281 282 272 276 256 299 281 324 321 316 309 306 294 288 294 296 294 290 286 288 285 288 293 297 301 303 303 298 291 286 284 284 283 278 273 278 283
249 260 271 280 280 278 280 280 277 280 280 278 296 298 331 312 298 291 289 290 293 294 288 291 289 283 289 287 290 294 298 302 304 302 300 296 293 291 289 286 282 279 281 283
247 252 263 269 285 290 285 300 252 291 297 303 300 318 327 326 328 320 312 312 315 317 305 289 284 283 284 288 289 292 297 302 304 303 301 299 297 296 295 293 292 292 289 285
254 255 252 260 271 242 276 225 256 296 294 309 307 325 331 326 331 323 310 312 313 311 308 298 283 284 283 284 286 293 298 302 304 303 303 302 300 298 296 295 292 289 286 288
249 252 246 241 228 272 269 266 270 275 303 306 291 319 318 318 322 321 307 314 320 317 307 296 286 282 280 282 289 294 297 298 299 296 295 295 295 295 295 294 292 291 291 291
241 241 232 241 246 237 281 254 255 295 302 285 290 316 315 313 319 319 310 313 316 320 308 291 284 282 281 282 284 291 296 299 301 302 299 295 293 291 288 285 284 285 286 285
227 233 233 239 249 263 265 274 278 263 294 298 306 313 316 310 307 312 308 304 307 310 308 299 287 282 281 281 285 288 294 298 301 302 301 300 295 292 292 290 287 282 278 277
238 240 241 235 237 263 286 253 247 295 289 303 306 306 308 306 304 304 302 297 297 299 299 295 289 285 281 283 286 290 293 296 299 300 300 297 294 292 292 290 286 282 279 275
236 243 246 244 257 269 273 278 279 277 283 297 301 300 303 300 300 297 294 292 289 291 291 289 287 284 280 282 284 285 291 293 294 295 296 298 299 299 297 293 288 284 276 271
254 257 252 254 265 270 269 269 273 279 289 291 296 296 302 301 300 292 288 290 285 282 282 281 279 279 279 280 282 283 289 291 292 294 296 297 298 298 297 295 293 289 282 275
259 261 261 268 271 274 270 274 286 287 288 288 295 296 297 296 301 292 285 292 291 284 282 279 276 278 281 277 277 280 285 290 291 294 296 299 300 298 296 295 295 292 287 281
263 266 265 274 276 273 278 281 284 287 289 292 294 290 294 292 290 281 282 288 290 284 277 279 280 281 281 276 274 274 283 288 288 293 294 297 302 302 297 292 291 291 288 283
Height
3208 3209 3209 3207 3207 3206 3205 3204 3203 3201 3198 3195 3191 3190 3190 3186 3186 3187 3188 3188 3186 3189 3187 3189 3189 3189 3189 3188 3188 3187 3187 3185 3185 3183 3182 3180 3179 3177 3176 3174 3172 3171 3168 3166
3209 3208 3207 3206 3206 3205 3204 3203 3202 3199 3196 3193 3189 3186 3185 3184 3184 3184 3185 3185 3186 3187 3186 3187 3187 3186 3185 3185 3185 3184 3184 3183 3182 3180 3179 3177 3176 3174 3172 3171 3169 3167 3165 3163
3207 3207 3206 3205 3205 3204 3203 3202 3200 3199 3195 3192 3187 3184 3184 3184 3183 3183 3183 3184 3185 3185 3185 3184 3184 3184 3183 3184 3183 3182 3180 3179 3178 3177 3176 3174 3172 3171 3169 3167 3165 3164 3162 3159
3206 3205 3205 3204 3204 3203 3201 3200 3198 3196 3194 3194 3190 3187 3183 3182 3182 3182 3182 3183 3183 3183 3182 3182 3181 3181 3181 3180 3179 3178 3177 3176 3174 3173 3172 3170 3169 3167 3165 3164 3162 3160 3158 3156
3205 3204 3203 3203 3203 3201 3201 3198 3196 3193 3192 3190 3188 3188 3182 3181 3181 3181 3181 3182 3182 3182 3181 3180 3180 3179 3178 3177 3176 3174 3173 3171 3170 3169 3167 3166 3164 3163 3161 3160 3158 3156 3154 3152
3203 3202 3202 3201 3201 3200 3199 3197 3193 3191 3191 3190 3188 3189 3182 3181 3181 3181 3180 3180 3180 3180 3179 3179 3178 3177 3176 3175 3173 3171 3169 3168 3166 3164 3163 3162 3161 3159 3157 3155 3153 3152 3151 3149
3201 3200 3200 3200 3200 3200 3199 3197 3195 3192 3189 3188 3187 3187 3181 3180 3180 3179 3178 3178 3177 3177 3177 3176 3176 3175 3174 3172 3170 3168 3166 3164 3161 3159 3157 3156 3155 3153 3152 3150 3149 3147 3146 3144
3200 3201 3200 3199 3201 3201 3199 3199 3199 3196 3191 3190 3184 3183 3180 3178 3177 3176 3175 3175 3175 3174 3174 3174 3173 3172 3170 3168 3165 3163 3160 3159 3156 3154 3153 3150 3148 3147 3146 3145 3144 3142 3141 3139
3199 3199 3199 3199 3200 3202 3199 3200 3200 3198 3194 3193 3185 3180 3178 3176 3175 3174 3173 3173 3172 3172 3172 3171 3169 3167 3165 3162 3159 3156 3154 3153 3149 3147 3145 3143 3141 3140 3139 3137 3136 3136 3135 3133
3198 3199 3198 3198 3199 3199 3199 3201 3200 3199 3198 3190 3184 3181 3177 3175 3174 3173 3172 3172 3170 3169 3167 3165 3163 3161 3158 3155 3152 3149 3146 3145 3143 3141 3139 3137 3135 3134 3132 3130 3130 3130 3129 3127
3195 3197 3198 3197 3196 3196 3198 3198 3199 3200 3199 3196 3188 3179 3175 3174 3173 3172 3171 3170 3168 3165 3161 3158 3155 3152 3148 3146 3143 3142 3139 3137 3136 3134 3132 3129 3128 3127 3125 3124 3124 3123 3122 3121
3193 3193 3194 3195 3194 3193 3194 3195 3197 3198 3197 3194 3194 3176 3172 3171 3171 3171 3169 3167 3164 3161 3156 3152 3149 3145 3141 3139 3137 3135 3133 3131 3129 3127 3124 3122 3120 3119 3118 3117 3117 3116 3115 3113
3190 3191 3192 3191 3193 3191 3191 3192 3193 3193 3192 3189 3191 3171 3170 3168 3168 3167 3165 3163 3159 3154 3149 3144 3142 3139 3137 3134 3132 3129 3127 3125 3123 3120 3117 3114 3113 3112 3112 3111 3109 3108 3107 3106
3188 3187 3189 3189 3189 3189 3186 3186 3186 3187 3187 3184 3172 3164 3164 3163 3160 3158 3154 3151 3147 3143 3140 3139 3135 3133 3131 3129 3127 3125 3122 3119 3116 3113 3110 3107 3106 3105 3104 3103 3102 3101 3101 3100
3184 3182 3183 3183 3184 3185 3182 3180 3178 3175 3176 3178 3163 3165 3158 3157 3154 3150 3146 3141 3138 3136 3134 3131 3129 3128 3125 3123 3122 3119 3117 3114 3111 3108 3105 3103 3101 3099 3098 3097 3096 3094 3093 3093
3178 3178 3177 3176 3177 3177 3173 3172 3170 3166 3165 3162 3159 3153 3155 3150 3146 3143 3139 3136 3133 3130 3126 3123 3122 3121 3120 3118 3116 3114 3112 3110 3106 3103 3101 3099 3097 3095 3093 3091 3089 3087 3087 3086
3173 3173 3173 3172 3171 3170 3167 3160 3161 3161 3157 3156 3152 3150 3146 3144 3141 3137 3134 3131 3127 3123 3120 3117 3116 3116 3114 3113 3111 3110 3107 3105 3103 3100 3098 3095 3092 3090 3088 3085 3084 3082 3080 3078
3166 3168 3169 3167 3168 3166 3157 3155 3155 3156 3155 3151 3147 3144 3143 3139 3137 3133 3129 3127 3123 3119 3116 3113 3112 3110 3109 3108 3107 3105 3103 3101 3099 3096 3093 3091 3088 3085 3083 3081 3078 3075 3073 3071
3159 3162 3163 3163 3159 3152 3153 3151 3150 3148 3146 3145 3141 3141 3139 3135 3131 3130 3126 3122 3118 3115 3112 3110 3108 3106 3105 3103 3102 3100 3098 3096 3094 3091 3088 3085 3082 3080 3077 3075 3072 3070 3067 3065
3150 3153 3157 3155 3153 3144 3143 3143 3144 3143 3138 3137 3137 3135 3132 3128 3125 3124 3120 3116 3112 3109 3107 3105 3104 3102 3100 3097 3095 3094 3092 3090 3088 3085 3082 3079 3076 3073 3070 3067 3064 3062 3060 3058
3142 3143 3144 3147 3142 3131 3136 3137 3138 3140 3137 3131 3129 3127 3123 3122 3119 3116 3114 3110 3107 3104 3102 3100 3098 3096 3094 3091 3089 3086 3083 3082 3080 3077 3073 3071 3068 3065 3062 3059 3055 3053 3050 3048
3134 3138 3136 3137 3134 3124 3125 3126 3129 3130 3126 3125 3122 3118 3114 3112 3110 3107 3106 3104 3101 3098 3095 3093 3091 3090 3087 3084 3081 3078 3076 3073 3071 3069 3066 3062 3059 3055 3051 3048 3045 3042 3039 3038
3122 3121 3125 3123 3115 3118 3117 3118 3119 3120 3118 3118 3114 3110 3106 3103 3101 3098 3096 3095 3093 3090 3087 3084 3082 3080 3078 3075 3073 3069 3067 3063 3061 3059 3055 3052 3048 3043 3039 3035 3031 3029 3026 3024
3106 3111 3106 3110 3103 3108 3109 3110 3112 3111 3109 3107 3104 3101 3097 3093 3090 3086 3086 3084 3082 3080 3077 3074 3071 3069 3068 3065 3062 3060 3057 3053 3050 3048 3045 3040 3036 3031 3025 3022 3020 3017 3014 3013
3099 3097 3097 3089 3092 3095 3094 3098 3100 3100 3097 3094 3093 3090 3087 3084 3081 3077 3074 3073 3071 3069 3067 3064 3060 3057 3057 3054 3051 3050 3047 3044 3040 3037 3033 3030 3026 3021 3016 3011 3008 3006 3006 3002
3079 3081 3085 3072 3087 3082 3081 3085 3086 3084 3082 3082 3080 3077 3076 3074 3070 3068 3063 3061 3059 3057 3055 3052 3050 3047 3046 3042 3039 3038 3037 3034 3030 3027 3023 3018 3016 3012 3007 3002 2997 2995 2994 2992